Flag for Austria Weather past 2 weeks in Waidhofen an der Ybbs, Lower Austria, Austria

Now
50 °F

Cool.


Feels Like: 48 °F
Forecast: 37 / 52 °F
Wind: 5 mph from West

Location: Amstetten

Current Time: Mar 28, 2015 at 3:34:28 PM

Latest Report: Mar 28, 2015 at 3:00 PM


Visibility: N/A

Pressure: 30.10 "Hg

Humidity: 48%

Dew point: 31 °F

Location of Waidhofen an der YbbsLocation

Historic Weather in Waidhofen an der Ybbs — Graph

°F

Waidhofen an der Ybbs temperature yesterday

Maximum temperature yesterday: 48 °F (at 2:00 PM)
Minimum temperature yesterday: 42 °F (at 6:00 AM)
Average temperature yesterday: 44 °F

Past Weeks' High & Low Weather Summary

 TemperatureHumidityPressure
High61 °F (Mar 24, 4:00 PM)94% (Mar 22, 4:00 AM)30.41 "Hg (Mar 22, 4:00 AM)
Low26 °F (Mar 21, 6:00 AM)30% (Mar 20, 4:00 PM)29.63 "Hg (Mar 25, 5:00 PM)
Average44 °F68%30.12 "Hg
* Reported Mar 13 2:00 PM — Mar 28 2:00 PM, Waidhofen an der Ybbs, Weather by CustomWeather, © 2015

Note: Actual official high and low records may vary slightly from our data, if they occured in-between our weather recording intervals... More about our weather records

Advertising

Waidhofen an der Ybbs weather history for previous 24 hours

 ConditionsComfort  
Time TempWeatherWind HumidityBarometerVisibility
2:00 PM
Sat, Mar 28
51 °FCool.3 mph40%30.12 "HgN/A
1:00 PM49 °FCool.5 mph46%30.15 "HgN/A
12:00 PM48 °FCool.5 mph47%30.17 "HgN/A
11:00 AMN/APassing clouds.12 mphN/AN/A3 mi
10:00 AM47 °FCool.6 mph61%30.20 "HgN/A
9:00 AM46 °FCool.6 mph64%30.20 "HgN/A
8:00 AM44 °FQuite cool.3 mph70%30.21 "HgN/A
7:00 AM43 °FQuite cool.3 mph71%30.21 "HgN/A
6:00 AM42 °FQuite cool.2 mph73%30.20 "HgN/A
5:00 AM42 °FQuite cool.2 mph73%30.20 "HgN/A
3:00 AM43 °FQuite cool.3 mph72%30.19 "HgN/A
2:00 AM43 °FQuite cool.3 mph71%30.20 "HgN/A
1:00 AM43 °FQuite cool.3 mph72%30.19 "HgN/A
12:00 AM44 °FQuite cool.3 mph71%30.19 "HgN/A
11:00 PM
Fri, Mar 27
45 °FQuite cool.3 mph70%30.18 "HgN/A
10:00 PM45 °FQuite cool.3 mph69%30.17 "HgN/A
9:00 PM45 °FQuite cool.6 mph69%30.15 "HgN/A
8:00 PM44 °FQuite cool.7 mph71%30.14 "HgN/A
7:00 PM44 °FQuite cool.5 mph72%30.11 "HgN/A
6:00 PM45 °FCool.5 mph66%30.08 "HgN/A
5:00 PM47 °FCool.5 mph72%30.05 "HgN/A
4:00 PM46 °FCool.3 mph78%30.04 "HgN/A
3:00 PM46 °FCool.6 mph75%30.04 "HgN/A
Weather by CustomWeather, © 2015

See weather overviewHow to use our weather pages